Printer-friendly version

IAU Minor Planet Center

Minor Planet Center

MPEC 2000-K09: 2000 HO14

The following Minor Planet Electronic Circular may be linked-to from your own Web pages, but must not otherwise be redistributed electronically.


Read MPEC 2000-K08 Read MPEC 2000-K10


M.P.E.C. 2000-K09                                Issued 2000 May 19, 21:45 UT

     The Minor Planet Electronic Circulars contain information on unusual
         minor planets and routine data on comets.  They are published
   on behalf of Commission 20 of the International Astronomical Union by the
          Minor Planet Center, Smithsonian Astrophysical Observatory,
                          Cambridge, MA 02138, U.S.A.

             Prepared using the Tamkin Foundation Computer Network

             BMARSDEN@CFA.HARVARD.EDU or GWILLIAMS@CFA.HARVARD.EDU
          URL http://cfa-www.harvard.edu/iau/mpc.html  ISSN 1523-6714

                                   2000 HO14

                           Revision to MPEC 2000-J20

Observations:
     K00H14O 6 1983 05 08.46655 13 17 47.73 -07 44 19.9                      413
     K00H14O 6 1983 05 08.50822 13 17 46.56 -07 43 42.7                      413

Observer details:
413 Siding Spring Observatory.  Observers A. Boattini, G. Forti, M. Tombelli,
    L. Tesi.  1.2-m Schmidt.

Orbital elements:
2000 HO14
Epoch 2000 Feb. 26.0 TT = JDT 2451600.5                 Williams
M 319.24341              (2000.0)            P               Q
n   0.28979934     Peri.   53.10548     +0.01597682     +0.99815058
a   2.2615409      Node   217.93848     -0.94503879     -0.00408441
e   0.4475081      Incl.    5.47431     -0.32656764     +0.06065267
P   3.40           H   17.9           G   0.15           U   4
Residuals in seconds of arc
830508 413  0.2-  0.4+    000503 704  0.1+  0.3+    000505 046  0.1-  0.2-
830508 413  0.2+  0.4-    000503 704  0.3+  0.1+    000505 046  0.1-  0.3-
000407 704  0.4+  0.1+    000504 699  0.2-  0.2+    000505 557  0.2-  0.3-
000407 704  1.5+  0.1+    000504 699  0.2-  0.3+    000505 557  0.2-  0.2-
000407 704  0.3-  0.3+    000504 699  0.2-  0.8+    000506 704  0.1+  0.2+
000407 704  1.6-  0.4-    000504 699  0.9-  0.8+    000506 704  0.9+  0.4+
000429 704  0.6-  0.1+    000504 557  0.6-  0.3+    000506 704  0.1-  0.8+
000429 704  0.2-  0.0     000504 557  0.4-  0.3+    000506 704  0.6+  0.3+
000429 704  0.3-  0.2+    000505 704  0.1-  0.4-    000506 704  0.3+  0.0
000429 704  0.0   0.5+    000505 704  0.0   0.5-    000507 704  0.5+  0.1-
000429 704  0.3+  0.9+    000505 858  0.5-  0.3-    000507 704  0.4+  0.3-
000430 704  0.6-  0.5-    000505 858  0.1-  0.2-    000507 704  0.4+  0.3-
000430 704  0.0   0.8-    000505 704  0.1-  0.4-    000507 704  0.4+  0.1+
000430 704  0.2+  0.2+    000505 858  0.2-  0.0     000507 704  0.5+  0.6-
000430 704  1.0+  1.2-    000505 704  0.0   0.3+    000511 699  0.0   0.4+
000430 704  0.2+  1.4-    000505 704  0.9+  0.4+    000511 699  0.3-  0.3-
000503 704  0.3-  0.3+    000505 046  0.4+  0.2+    000511 699  0.5-  0.9-
000503 704  0.0   0.1+    000505 046  0.2+  0.5-    000511 699  0.5-  0.8+
000503 704  0.2-  0.1+    000505 046  0.2-  0.2+

Ephemeris:
2000 HO14                a,e,i = 2.26, 0.45, 5                   q = 1.2495
Date    TT    R. A. (2000) Decl.     Delta      r     Elong.  Phase     V
2000 05 16    12 58.17   -04 33.2    0.456    1.391   139.7    28.1    18.2
2000 05 26    13 01.65   -02 48.4    0.454    1.351   130.1    35.0    18.3
2000 06 05    13 10.83   -01 44.5    0.457    1.316   122.2    40.7    18.4
2000 06 15    13 25.68   -01 24.4    0.464    1.288   115.9    45.2    18.5
2000 06 25    13 45.71   -01 45.0    0.474    1.267   111.2    48.4    18.6
2000 07 05    14 10.36   -02 41.4    0.487    1.254   107.8    50.5    18.7
2000 07 15    14 39.03   -04 06.6    0.503    1.250   105.6    51.6    18.8
2000 07 25    15 10.95   -05 51.4    0.525    1.253   104.3    51.8    18.9
2000 08 04    15 45.33   -07 45.8    0.554    1.265   103.6    51.2    19.0
2000 08 14    16 21.35   -09 38.8    0.591    1.285   103.4    50.1    19.2
2000 08 24    16 58.02   -11 20.1    0.638    1.312   103.1    48.6    19.3
2000 09 03    17 34.53   -12 42.1    0.697    1.346   102.7    47.0    19.5
2000 09 13    18 10.20   -13 39.9    0.768    1.385   101.8    45.3    19.8
2000 09 23    18 44.48   -14 11.8    0.851    1.429   100.5    43.6    20.0
2000 10 03    19 17.09   -14 18.7    0.947    1.477    98.7    42.0    20.3
2000 10 13    19 47.94   -14 02.7    1.053    1.528    96.3    40.5    20.5
2000 10 23    20 17.01   -13 26.8    1.170    1.582    93.5    38.9    20.8
2000 11 02    20 44.43   -12 34.1    1.297    1.636    90.3    37.3    21.0
2000 11 12    21 10.35   -11 27.4    1.432    1.693    86.7    35.7    21.3
2000 11 22    21 34.90   -10 09.4    1.574    1.749    82.7    34.1    21.5
2000 12 02    21 58.27   -08 42.4    1.722    1.807    78.5    32.3    21.7
2000 12 12    22 20.62   -07 08.3    1.874    1.864    74.1    30.5    21.9

Gareth V. Williams           (C) Copyright 2000 MPC           M.P.E.C. 2000-K09

Read MPEC 2000-K08 Read MPEC 2000-K10


Our Web policy. Index to the CBAT/MPC/ICQ pages.


Valid HTML 4.01!